sat.trackr.live / text

‹ back to catalog

SHIYAN-20A (SY-20A)

NORAD 54699 · 2022-169A

PAYLOAD ACTIVE UNKNOWN

§ Identity

Operator
Country
PRC
Launch date
2022-12-12
Launch site
JSC
Launch vehicle
Mass (kg)
RCS (m²)

External: N2YO · Heavens-Above · Gunter

§ Orbital elements

Epoch: 2026-05-25T05:20:57.904224Z

Period
100.73 min
Inclination
59.9975°
Eccentricity
0.0010066
Mean motion
14.29519424 rev/d
Perigee alt
786.1 km
Apogee alt
800.6 km
Semi-major
7,171.5 km
B*
5.5506e-5
RAAN
316.3394°
Arg perigee
159.1651°
Mean anomaly
200.9796°
Rev number
18,007

§ Raw data

SHIYAN-20A (SY-20A)1 54699U 22169A   26145.22289241  .00000006  00000+0  55506-4 0  99912 54699  59.9975 316.3394 0010066 159.1651 200.9796 14.29519424180079

JSON: /api/v1/satellites/54699 · /tle

For live sub-satellite position, see the globe view (requires WebGL).

§ Visibility from observer

Set your observer location to see the next 7 days of passes ≥ 10°. The values pass through the URL so the page stays shareable.

No JS? Fill the form by hand. The geolocation button needs JavaScript.